Location: Kumla
(59.1265°N, 15.1401°E)
Time: 08:07:34
(UTC+01:00)

Transit 4A - Pass Details

Date: 06 December 2023
Orbit: 870 x 973 km, 66.8° (Epoch: 02 March)

Event Time Altitude Azimuth Distance (km) Brightness Sun altitude
Exits shadow 04:10:59 26° 160° (SSE) 1,709 9.3 -31.8°
Drops below altitude 10° 04:13:30 10° 153° (SSE) 2,581 10.4 -31.5°
Sets 04:15:59 0° 150° (SSE) 3,504 11.2 -31.2°
